TimeEST,TemperatureF,Dew PointF,Humidity,Sea Level PressureIn,VisibilityMPH,Wind Direction,Wind SpeedMPH,Gust SpeedMPH,PrecipitationIn,Events,Conditions,WindDirDegrees,DateUTC
12:15 AM,35.1,35.1,100,30.20,10.0,Calm,Calm,-,N/A,,Clear,0,2012-12-20 05:15:00
12:35 AM,32.5,32.2,99,30.19,10.0,Calm,Calm,-,N/A,,Clear,0,2012-12-20 05:35:00
12:55 AM,32.7,32.5,99,30.20,5.0,Calm,Calm,-,N/A,,Clear,0,2012-12-20 05:55:00
1:15 AM,32.7,32.5,99,30.20,10.0,Calm,Calm,-,N/A,,Clear,0,2012-12-20 06:15:00
1:35 AM,33.8,33.8,100,30.20,10.0,Calm,Calm,-,N/A,,Clear,0,2012-12-20 06:35:00
1:55 AM,33.4,33.4,100,30.19,10.0,Calm,Calm,-,N/A,,Clear,0,2012-12-20 06:55:00
2:15 AM,32.0,32.0,100,30.20,10.0,Calm,Calm,-,N/A,,Clear,0,2012-12-20 07:15:00
2:35 AM,33.1,33.1,100,30.21,10.0,Calm,Calm,-,N/A,,Clear,0,2012-12-20 07:35:00
2:55 AM,33.1,33.1,100,30.21,7.0,Calm,Calm,-,N/A,,Clear,0,2012-12-20 07:55:00
3:15 AM,32.0,32.0,100,30.21,10.0,Calm,Calm,-,N/A,,Clear,0,2012-12-20 08:15:00
3:35 AM,31.8,31.8,100,30.21,10.0,Calm,Calm,-,N/A,,Clear,0,2012-12-20 08:35:00
3:55 AM,31.8,31.8,100,30.21,7.0,Calm,Calm,-,N/A,,Clear,0,2012-12-20 08:55:00
4:15 AM,31.6,31.6,100,30.21,10.0,Calm,Calm,-,N/A,,Clear,0,2012-12-20 09:15:00
4:35 AM,32.0,32.0,100,30.21,10.0,Calm,Calm,-,N/A,,Clear,0,2012-12-20 09:35:00
4:55 AM,32.0,32.0,100,30.21,10.0,Calm,Calm,-,N/A,,Clear,0,2012-12-20 09:55:00
5:15 AM,31.6,31.6,100,30.21,7.0,Calm,Calm,-,N/A,,Clear,0,2012-12-20 10:15:00
5:35 AM,30.9,30.9,100,30.22,10.0,Calm,Calm,-,N/A,,Clear,0,2012-12-20 10:35:00
5:55 AM,31.1,31.1,100,30.23,4.0,Calm,Calm,-,N/A,,Clear,0,2012-12-20 10:55:00
6:15 AM,30.6,30.6,100,30.23,10.0,Calm,Calm,-,N/A,,Clear,0,2012-12-20 11:15:00
6:35 AM,31.1,31.1,100,30.23,7.0,Calm,Calm,-,N/A,,Clear,0,2012-12-20 11:35:00
6:55 AM,31.3,31.3,100,30.22,7.0,ENE,4.6,-,N/A,,Clear,60,2012-12-20 11:55:00
7:15 AM,29.8,29.8,100,30.22,7.0,Calm,Calm,-,N/A,,Clear,0,2012-12-20 12:15:00
7:35 AM,28.9,28.9,100,30.22,7.0,Calm,Calm,-,N/A,,Clear,0,2012-12-20 12:35:00
7:55 AM,31.1,31.1,100,30.22,5.0,Calm,Calm,-,N/A,,Clear,0,2012-12-20 12:55:00
8:15 AM,32.0,32.0,100,30.21,7.0,Calm,Calm,-,N/A,,Clear,0,2012-12-20 13:15:00
8:35 AM,34.2,34.2,100,30.21,7.0,Calm,Calm,-,N/A,,Clear,0,2012-12-20 13:35:00
8:55 AM,37.2,37.2,100,30.21,7.0,Calm,Calm,-,N/A,,Clear,0,2012-12-20 13:55:00
9:15 AM,41.9,41.9,100,30.19,10.0,East,3.5,-,N/A,,Clear,80,2012-12-20 14:15:00
9:35 AM,44.1,40.5,87,30.19,10.0,East,5.8,-,N/A,,Clear,100,2012-12-20 14:35:00
9:55 AM,46.0,40.8,82,30.19,10.0,East,9.2,-,N/A,,Clear,100,2012-12-20 14:55:00
10:15 AM,46.6,38.3,73,30.17,10.0,East,8.1,-,N/A,,Clear,100,2012-12-20 15:15:00
10:35 AM,49.1,37.6,64,30.16,10.0,East,12.7,17.3,N/A,,Clear,90,2012-12-20 15:35:00
10:55 AM,49.6,36.3,60,30.15,10.0,ESE,11.5,17.3,N/A,,Clear,120,2012-12-20 15:55:00
11:15 AM,49.6,36.1,60,30.15,10.0,ESE,9.2,-,N/A,,Clear,120,2012-12-20 16:15:00
11:35 AM,50.0,36.9,61,30.14,10.0,SE,6.9,-,N/A,,Clear,130,2012-12-20 16:35:00
11:55 AM,50.0,36.9,61,30.13,10.0,SSE,6.9,-,N/A,,Clear,150,2012-12-20 16:55:00
12:15 PM,50.0,38.5,65,30.12,10.0,SSE,9.2,-,N/A,,Clear,150,2012-12-20 17:15:00
12:35 PM,50.0,38.7,65,30.11,10.0,SE,9.2,-,N/A,,Clear,140,2012-12-20 17:35:00
12:55 PM,50.4,38.1,63,30.08,10.0,ESE,9.2,-,N/A,,Clear,110,2012-12-20 17:55:00
1:15 PM,50.0,38.3,64,30.09,10.0,ESE,6.9,-,N/A,,Clear,120,2012-12-20 18:15:00
1:35 PM,50.4,39.4,66,30.09,10.0,ESE,6.9,-,N/A,,Clear,110,2012-12-20 18:35:00
1:55 PM,51.3,40.1,66,30.08,10.0,East,8.1,-,N/A,,Clear,90,2012-12-20 18:55:00
2:15 PM,50.5,40.5,68,30.06,10.0,ESE,9.2,-,N/A,,Clear,110,2012-12-20 19:15:00
2:35 PM,50.4,41.4,71,30.04,10.0,ESE,9.2,-,N/A,,Clear,110,2012-12-20 19:35:00
2:55 PM,50.2,42.4,75,30.03,10.0,ESE,6.9,-,N/A,,Clear,110,2012-12-20 19:55:00
3:15 PM,49.3,42.4,77,30.01,10.0,ESE,10.4,-,N/A,,Clear,110,2012-12-20 20:15:00
3:35 PM,49.1,42.3,77,30.00,10.0,ESE,6.9,10.4,N/A,,Clear,110,2012-12-20 20:35:00
3:55 PM,49.1,42.4,78,29.99,10.0,East,11.5,-,N/A,,Clear,100,2012-12-20 20:55:00
4:15 PM,49.1,42.8,79,29.97,10.0,ESE,10.4,-,N/A,,Clear,110,2012-12-20 21:15:00
4:35 PM,49.1,42.8,79,29.96,10.0,ESE,11.5,-,N/A,,Clear,110,2012-12-20 21:35:00
4:55 PM,49.1,43.2,80,29.96,10.0,ESE,8.1,-,N/A,,Clear,110,2012-12-20 21:55:00
5:15 PM,49.1,43.5,81,29.96,10.0,East,8.1,-,N/A,,Mostly Cloudy,100,2012-12-20 22:15:00
5:35 PM,49.1,43.9,82,29.93,10.0,East,11.5,-,N/A,,Mostly Cloudy,100,2012-12-20 22:35:00
5:55 PM,49.5,44.6,83,29.90,10.0,ESE,12.7,-,N/A,,Mostly Cloudy,110,2012-12-20 22:55:00
6:15 PM,50.0,45.0,83,29.89,10.0,ESE,15.0,-,N/A,,Mostly Cloudy,120,2012-12-20 23:15:00
6:35 PM,50.4,45.5,83,29.90,10.0,ESE,11.5,17.3,N/A,,Overcast,120,2012-12-20 23:35:00
6:55 PM,50.5,45.9,84,29.86,10.0,ESE,12.7,-,N/A,,Overcast,120,2012-12-20 23:55:00
7:15 PM,50.9,46.0,83,29.84,10.0,ESE,15.0,21.9,N/A,,Overcast,120,2012-12-21 00:15:00
7:35 PM,51.4,46.8,84,29.83,10.0,SE,11.5,17.3,N/A,,Overcast,130,2012-12-21 00:35:00
7:55 PM,50.9,48.0,90,29.81,10.0,ESE,16.1,23.0,N/A,,Overcast,120,2012-12-21 00:55:00
8:15 PM,51.3,48.6,90,29.79,10.0,ESE,18.4,23.0,N/A,,Overcast,110,2012-12-21 01:15:00
8:35 PM,51.4,49.5,93,29.77,10.0,ESE,12.7,19.6,N/A,,Overcast,120,2012-12-21 01:35:00
8:55 PM,51.8,50.5,95,29.74,10.0,ESE,11.5,18.4,0.01,,Overcast,120,2012-12-21 01:55:00
9:15 PM,52.3,51.8,98,29.72,5.0,SE,12.7,20.7,0.02,,Overcast,130,2012-12-21 02:15:00
9:35 PM,52.9,52.7,99,29.70,5.0,SE,16.1,23.0,0.04,,Overcast,130,2012-12-21 02:35:00
9:55 PM,53.6,53.6,100,29.65,5.0,ESE,16.1,25.3,0.08,,Overcast,120,2012-12-21 02:55:00
10:15 PM,54.5,54.5,100,29.61,5.0,ESE,15.0,25.3,0.03,,Overcast,120,2012-12-21 03:15:00
10:35 PM,54.9,54.9,100,29.58,7.0,SE,16.1,23.0,0.06,,Overcast,130,2012-12-21 03:35:00
10:55 PM,55.4,55.4,100,29.57,5.0,SE,17.3,23.0,0.09,,Overcast,130,2012-12-21 03:55:00
11:15 PM,56.5,56.5,100,29.53,7.0,SE,15.0,24.2,0.02,,Overcast,130,2012-12-21 04:15:00
11:35 PM,58.1,58.1,100,29.50,10.0,SE,18.4,31.1,0.02,,Overcast,130,2012-12-21 04:35:00
11:55 PM,58.6,58.6,100,29.49,7.0,SSE,18.4,27.6,0.02,,Overcast,150,2012-12-21 04:55:00